カタログに戻る

INTELSAT 709

運用中通信GEO
NORAD 23915·PAYLOAD· XX

打ち上げ Jun 15, 1996 から Guiana Space Centre

Loading…

TLE

最新Source: Space-Track

元期: Sep 14, 2026, 08:22 UTC

1 23915U 96035A   26257.34917168 -.00000197  00000-0  00000-0 0  9992
2 23915  10.9223  46.7902 0019304 227.4103 143.9071  0.99180516110290

AllMySatでINTELSAT 709をリアルタイム追跡

Download on the App Store